| time (UTC) | temp F | wind direction | speed MPH | gust MPH | rain 1hr in | rain 24hr in | rain mn in | humidity % | barometer mb |
| 20260510204217 | 72 | 168 | 0.0 | 2.0 | 0.00 | 0.00 | 0.00 | 44 | 1017.2 |
| 20260510203712 | 70 | 127 | 0.0 | 5.0 | 0.00 | 0.00 | 0.00 | 40 | 1017.2 |
| 20260510202935 | 71 | 190 | 5.0 | 5.0 | 0.00 | 0.00 | 0.00 | 42 | 1017.2 |
| 20260510202428 | 72 | 121 | 0.0 | 5.0 | 0.00 | 0.00 | 0.00 | 42 | 1017.2 |
| 20260510202201 | 73 | 142 | 0.0 | 5.0 | 0.00 | 0.00 | 0.00 | 43 | 1017.2 |
| 20260510201411 | 73 | 229 | 2.0 | 5.0 | 0.00 | 0.00 | 0.00 | 42 | 1017.2 |
| 20260510200858 | 73 | 60 | 0.0 | 2.0 | 0.00 | 0.00 | 0.00 | 39 | 1016.9 |
| 20260510200353 | 74 | 120 | 0.0 | 5.0 | 0.00 | 0.00 | 0.00 | 46 | 1016.9 |
| 20260510195845 | 72 | 130 | 2.0 | 5.0 | 0.00 | 0.00 | 0.00 | 37 | 1017.2 |
| 20260510195336 | 72 | 119 | 3.0 | 5.0 | 0.00 | 0.00 | 0.00 | 40 | 1017.2 |
| 20260510194829 | 73 | 183 | 2.0 | 5.0 | 0.00 | 0.00 | 0.00 | 41 | 1016.9 |
| 20260510194814 | 73 | 250 | 3.0 | 5.0 | 0.00 | 0.00 | 0.00 | 35 | 1017.2 |
| 20260510193811 | 73 | 195 | 1.0 | 5.0 | 0.00 | 0.00 | 0.00 | 38 | 1017.2 |
| 20260510193303 | 73 | 125 | 0.0 | 5.0 | 0.00 | 0.00 | 0.00 | 42 | 1017.2 |
| 20260510192753 | 73 | 124 | 2.0 | 5.0 | 0.00 | 0.00 | 0.00 | 38 | 1017.2 |
| 20260510192249 | 73 | 118 | 1.0 | 5.0 | 0.00 | 0.00 | 0.00 | 43 | 1016.9 |
| 20260510191738 | 72 | 195 | 2.0 | 5.0 | 0.00 | 0.00 | 0.00 | 39 | 1016.9 |
| 20260510191239 | 72 | 140 | 0.0 | 5.0 | 0.00 | 0.00 | 0.00 | 38 | 1017.2 |
| 20260510190734 | 72 | 305 | 0.0 | 5.0 | 0.00 | 0.00 | 0.00 | 39 | 1016.9 |
| 20260510190457 | 71 | 192 | 0.0 | 8.0 | 0.00 | 0.00 | 0.00 | 39 | 1016.9 |
| 20260510185712 | 72 | 209 | 4.0 | 8.0 | 0.00 | 0.00 | 0.00 | 41 | 1016.9 |
| 20260510185205 | 70 | 126 | 1.0 | 8.0 | 0.00 | 0.00 | 0.00 | 43 | 1017.2 |
| 20260510184653 | 71 | 128 | 3.0 | 8.0 | 0.00 | 0.00 | 0.00 | 42 | 1017.2 |
| 20260510184438 | 72 | 238 | 3.0 | 5.0 | 0.00 | 0.00 | 0.00 | 44 | 1017.2 |
| 20260510183639 | 71 | 70 | 0.0 | 5.0 | 0.00 | 0.00 | 0.00 | 44 | 1016.9 |
| 20260510183131 | 70 | 132 | 0.0 | 2.0 | 0.00 | 0.00 | 0.00 | 46 | 1016.9 |
| 20260510182615 | 70 | 169 | 1.0 | 5.0 | 0.00 | 0.00 | 0.00 | 40 | 1016.9 |
| 20260510182116 | 71 | 147 | 0.0 | 8.0 | 0.00 | 0.00 | 0.00 | 45 | 1016.6 |
| 20260510181554 | 71 | 136 | 1.0 | 8.0 | 0.00 | 0.00 | 0.00 | 43 | 1016.6 |
| 20260510181052 | 72 | 110 | 2.0 | 8.0 | 0.00 | 0.00 | 0.00 | 44 | 1016.9 |
| 20260510180829 | 73 | 136 | 2.0 | 5.0 | 0.00 | 0.00 | 0.00 | 45 | 1016.6 |
| 20260510180317 | 73 | 175 | 1.0 | 8.0 | 0.00 | 0.00 | 0.00 | 48 | 1016.6 |
| 20260510175528 | 72 | 196 | 5.0 | 8.0 | 0.00 | 0.00 | 0.00 | 45 | 1016.9 |
| 20260510175025 | 72 | 181 | 2.0 | 8.0 | 0.00 | 0.00 | 0.00 | 43 | 1016.9 |
| 20260510174511 | 73 | 179 | 1.0 | 5.0 | 0.00 | 0.00 | 0.00 | 48 | 1016.9 |
| 20260510174008 | 72 | 127 | 4.0 | 8.0 | 0.00 | 0.00 | 0.00 | 46 | 1016.6 |
| 20260510173455 | 71 | 137 | 2.0 | 10.0 | 0.00 | 0.00 | 0.00 | 43 | 1017.2 |
| 20260510172946 | 72 | 144 | 1.0 | 10.0 | 0.00 | 0.00 | 0.00 | 44 | 1016.9 |
| 20260510172447 | 71 | 128 | 1.0 | 5.0 | 0.00 | 0.00 | 0.00 | 45 | 1016.9 |
| 20260510171930 | 71 | 123 | 1.0 | 8.0 | 0.00 | 0.00 | 0.00 | 44 | 1016.9 |
| 20260510171426 | 71 | 200 | 2.0 | 8.0 | 0.00 | 0.00 | 0.00 | 40 | 1016.9 |
| 20260510170913 | 73 | 191 | 2.0 | 5.0 | 0.00 | 0.00 | 0.00 | 46 | 1016.6 |
| 20260510170409 | 71 | 167 | 0.0 | 8.0 | 0.00 | 0.00 | 0.00 | 47 | 1016.9 |
| 20260510165927 | 71 | 137 | 2.0 | 10.0 | 0.00 | 0.00 | 0.00 | 43 | 1016.9 |
| 20260510165859 | 71 | 202 | 5.0 | 10.0 | 0.00 | 0.00 | 0.00 | 43 | 1016.9 |
| 20260510164830 | 71 | 130 | 3.0 | 5.0 | 0.00 | 0.00 | 0.00 | 44 | 1016.6 |
| 20260510164311 | 72 | 202 | 3.0 | 5.0 | 0.00 | 0.00 | 0.00 | 45 | 1016.9 |
| 20260510164052 | 72 | 263 | 1.0 | 8.0 | 0.00 | 0.00 | 0.00 | 47 | 1016.9 |
| 20260510163540 | 71 | 116 | 2.0 | 10.0 | 0.00 | 0.00 | 0.00 | 47 | 1016.9 |
| 20260510162740 | 71 | 34 | 1.0 | 10.0 | 0.00 | 0.00 | 0.00 | 47 | 1016.9 |
| 20260510162237 | 71 | 219 | 0.0 | 5.0 | 0.00 | 0.00 | 0.00 | 49 | 1017.2 |
| 20260510161243 | 70 | 123 | 2.0 | 5.0 | 0.00 | 0.00 | 0.00 | 48 | 1017.2 |
| 20260510160716 | 71 | 131 | 0.0 | 8.0 | 0.00 | 0.00 | 0.00 | 52 | 1017.2 |
| 20260510160453 | 71 | 203 | 5.0 | 8.0 | 0.00 | 0.00 | 0.00 | 49 | 1017.2 |
| 20260510155713 | 70 | 112 | 0.0 | 5.0 | 0.00 | 0.00 | 0.00 | 48 | 1016.9 |
| 20260510155201 | 71 | 146 | 1.0 | 10.0 | 0.00 | 0.00 | 0.00 | 51 | 1016.9 |
| 20260510154652 | 70 | 118 | 3.0 | 10.0 | 0.00 | 0.00 | 0.00 | 48 | 1017.2 |
| 20260510154140 | 71 | 141 | 0.0 | 5.0 | 0.00 | 0.00 | 0.00 | 51 | 1017.2 |
| 20260510153904 | 71 | 134 | 0.0 | 5.0 | 0.00 | 0.00 | 0.00 | 53 | 1016.9 |
| 20260510153128 | 71 | 115 | 0.0 | 5.0 | 0.00 | 0.00 | 0.00 | 51 | 1016.9 |
| 20260510152900 | 72 | 124 | 2.0 | 5.0 | 0.00 | 0.00 | 0.00 | 52 | 1016.9 |
| 20260510152106 | 72 | 116 | 0.0 | 5.0 | 0.00 | 0.00 | 0.00 | 51 | 1016.9 |
| 20260510151607 | 72 | 175 | 1.0 | 5.0 | 0.00 | 0.00 | 0.00 | 52 | 1016.9 |
| 20260510151049 | 72 | 242 | 2.0 | 10.0 | 0.00 | 0.00 | 0.00 | 53 | 1016.9 |
| 20260510150550 | 71 | 242 | 2.0 | 10.0 | 0.00 | 0.00 | 0.00 | 49 | 1016.6 |
| 20260510150038 | 71 | 136 | 0.0 | 5.0 | 0.00 | 0.00 | 0.00 | 55 | 1016.9 |
| 20260510145538 | 71 | 167 | 1.0 | 5.0 | 0.00 | 0.00 | 0.00 | 54 | 1016.6 |
| 20260510145236 | 68 | 138 | 4.0 | 5.0 | 0.00 | 0.00 | 0.00 | 55 | 1016.6 |
| 20260510144503 | 70 | 191 | 0.0 | 5.0 | 0.00 | 0.00 | 0.00 | 56 | 1016.6 |
| 20260510144004 | 70 | 226 | 1.0 | 5.0 | 0.00 | 0.00 | 0.00 | 53 | 1016.6 |
| 20260510143446 | 71 | 142 | 0.0 | 5.0 | 0.00 | 0.00 | 0.00 | 61 | 1016.2 |
| 20260510142941 | 67 | 128 | 0.0 | 5.0 | 0.00 | 0.00 | 0.00 | 60 | 1015.9 |
| 20260510142432 | 70 | 128 | 1.0 | 2.0 | 0.00 | 0.00 | 0.00 | 59 | 1015.9 |
| 20260510142214 | 68 | 131 | 0.0 | 5.0 | 0.00 | 0.00 | 0.00 | 62 | 1015.9 |
| 20260510141415 | 68 | 190 | 1.0 | 5.0 | 0.00 | 0.00 | 0.00 | 63 | 1015.9 |
| 20260510141159 | 68 | 179 | 1.0 | 5.0 | 0.00 | 0.00 | 0.00 | 63 | 1016.2 |
| 20260510140410 | 66 | 129 | 2.0 | 5.0 | 0.00 | 0.00 | 0.00 | 64 | 1015.9 |
| 20260510140126 | 67 | 187 | 2.0 | 5.0 | 0.00 | 0.00 | 0.00 | 66 | 1015.9 |
| 20260510135625 | 66 | 183 | 1.0 | 2.0 | 0.00 | 0.00 | 0.00 | 68 | 1015.5 |
| 20260510134854 | 64 | 131 | 0.0 | 2.0 | 0.00 | 0.00 | 0.00 | 70 | 1015.9 |
| 20260510134336 | 67 | 147 | 0.0 | 5.0 | 0.00 | 0.00 | 0.00 | 70 | 1015.9 |
| 20260510134034 | 67 | 201 | 1.0 | 5.0 | 0.00 | 0.00 | 0.00 | 70 | 1015.9 |
| 20260510133305 | 64 | 146 | 0.0 | 2.0 | 0.00 | 0.00 | 0.00 | 73 | 1015.9 |
| 20260510132753 | 64 | 166 | 0.0 | 2.0 | 0.00 | 0.00 | 0.00 | 78 | 1015.9 |
| 20260510132252 | 62 | 131 | 0.0 | 2.0 | 0.00 | 0.00 | 0.00 | 80 | 1015.9 |
| 20260510131744 | 60 | 126 | 0.0 | 2.0 | 0.00 | 0.00 | 0.00 | 83 | 1015.5 |
| 20260510131728 | 60 | 172 | 0.0 | 2.0 | 0.00 | 0.00 | 0.00 | 83 | 1015.5 |
| 20260510130723 | 59 | 119 | 0.0 | 2.0 | 0.00 | 0.00 | 0.00 | 86 | 1015.5 |
| 20260510130228 | 59 | 121 | 0.0 | 2.0 | 0.00 | 0.00 | 0.00 | 87 | 1015.5 |
| 20260510125707 | 59 | 119 | 0.0 | 0.0 | 0.00 | 0.00 | 0.00 | 89 | 1015.5 |
| 20260510125424 | 59 | 85 | 0.0 | 0.0 | 0.00 | 0.00 | 0.00 | 90 | 1015.2 |
| 20260510124640 | 59 | 112 | 0.0 | 2.0 | 0.00 | 0.00 | 0.00 | 90 | 1015.2 |
| 20260510124132 | 58 | 128 | 0.0 | 2.0 | 0.00 | 0.00 | 0.00 | 90 | 1015.2 |
| 20260510123848 | 58 | 189 | 0.0 | 2.0 | 0.00 | 0.00 | 0.00 | 92 | 1015.2 |
| 20260510123121 | 58 | 117 | 0.0 | 2.0 | 0.00 | 0.00 | 0.00 | 92 | 1014.9 |
| 20260510122607 | 58 | 64 | 0.0 | 2.0 | 0.00 | 0.00 | 0.00 | 93 | 1015.2 |
| 20260510122333 | 59 | 113 | 0.0 | 2.0 | 0.00 | 0.00 | 0.00 | 94 | 1014.9 |
| 20260510121550 | 59 | 122 | 0.0 | 2.0 | 0.00 | 0.00 | 0.00 | 95 | 1014.9 |
| 20260510121046 | 59 | 188 | 0.0 | 2.0 | 0.00 | 0.00 | 0.00 | 96 | 1014.9 |
| 20260510120801 | 59 | 115 | 0.0 | 2.0 | 0.00 | 0.00 | 0.00 | 97 | 1014.5 |
| 20260510120035 | 59 | 122 | 0.0 | 2.0 | 0.00 | 0.00 | 0.00 | 98 | 1014.9 |
| 20260510115514 | 59 | 119 | 0.0 | 2.0 | 0.00 | 0.00 | 0.00 | 98 | 1014.5 |
| 20260510115008 | 59 | 177 | 0.0 | 0.0 | 0.00 | 0.00 | 0.00 | 99 | 1014.5 |
| 20260510114500 | 59 | 115 | 0.0 | 0.0 | 0.00 | 0.00 | 0.00 | 99 | 1014.5 |
| 20260510113952 | 59 | 123 | 0.0 | 0.0 | 0.00 | 0.00 | 0.00 | 99 | 1014.2 |
| 20260510113443 | 59 | 107 | 0.0 | 2.0 | 0.00 | 0.00 | 0.00 | 99 | 1014.5 |
| 20260510112935 | 59 | 20 | 0.0 | 2.0 | 0.00 | 0.00 | 0.00 | 99 | 1014.2 |
| 20260510112430 | 59 | 117 | 0.0 | 0.0 | 0.00 | 0.00 | 0.00 | 99 | 1013.9 |
| 20260510111928 | 59 | 120 | 0.0 | 0.0 | 0.00 | 0.00 | 0.00 | 99 | 1013.9 |
| 20260510111642 | 59 | 108 | 0.0 | 0.0 | 0.00 | 0.00 | 0.00 | 99 | 1013.5 |
| 20260510110912 | 59 | 71 | 0.0 | 0.0 | 0.00 | 0.00 | 0.00 | 99 | 1013.5 |
| 20260510110353 | 58 | 104 | 0.0 | 0.0 | 0.00 | 0.00 | 0.00 | 99 | 1013.5 |
| 20260510105849 | 59 | 109 | 0.0 | 0.0 | 0.00 | 0.00 | 0.00 | 99 | 1013.5 |
| 20260510105829 | 58 | 126 | 0.0 | 0.0 | 0.00 | 0.00 | 0.00 | 99 | 1013.5 |
| 20260510104838 | 58 | 108 | 0.0 | 0.0 | 0.00 | 0.00 | 0.00 | 99 | 1013.2 |
| 20260510104311 | 58 | 94 | 0.0 | 0.0 | 0.00 | 0.00 | 0.00 | 99 | 1013.2 |
| 20260510103803 | 58 | 96 | 0.0 | 2.0 | 0.00 | 0.00 | 0.00 | 99 | 1012.8 |
| 20260510103259 | 59 | 96 | 0.0 | 2.0 | 0.00 | 0.00 | 0.00 | 99 | 1012.8 |
| 20260510103011 | 58 | 89 | 0.0 | 2.0 | 0.00 | 0.00 | 0.00 | 99 | 1012.8 |
| 20260510102252 | 59 | 106 | 0.0 | 2.0 | 0.00 | 0.00 | 0.00 | 99 | 1012.8 |
| 20260510101743 | 58 | 103 | 0.0 | 0.0 | 0.00 | 0.00 | 0.00 | 99 | 1012.8 |
| 20260510101235 | 58 | 108 | 0.0 | 0.0 | 0.00 | 0.00 | 0.00 | 99 | 1012.5 |
| 20260510101156 | 59 | 76 | 0.0 | 0.0 | 0.00 | 0.00 | 0.00 | 99 | 1012.8 |
| 20260510100200 | 59 | 112 | 0.0 | 0.0 | 0.00 | 0.00 | 0.00 | 99 | 1012.8 |
| 20260510095925 | 59 | 95 | 0.0 | 0.0 | 0.00 | 0.00 | 0.00 | 99 | 1012.2 |
| 20260510095419 | 59 | 120 | 0.0 | 0.0 | 0.00 | 0.00 | 0.00 | 99 | 1012.5 |
| 20260510095321 | 60 | 111 | 0.0 | 0.0 | 0.00 | 0.00 | 0.00 | 99 | 1012.5 |
| 20260510094146 | 60 | 115 | 0.0 | 0.0 | 0.00 | 0.00 | 0.00 | 99 | 1012.2 |
| 20260510093632 | 60 | 104 | 0.0 | 0.0 | 0.00 | 0.00 | 0.00 | 99 | 1012.2 |
| 20260510093132 | 60 | 113 | 0.0 | 0.0 | 0.00 | 0.00 | 0.00 | 99 | 1012.2 |
| 20260510092833 | 60 | 117 | 0.0 | 2.0 | 0.00 | 0.00 | 0.00 | 98 | 1012.2 |
| 20260510092102 | 60 | 123 | 0.0 | 2.0 | 0.00 | 0.00 | 0.00 | 98 | 1011.8 |
| 20260510091559 | 60 | 112 | 0.0 | 0.0 | 0.00 | 0.00 | 0.00 | 97 | 1011.8 |
| 20260510091046 | 61 | 145 | 0.0 | 0.0 | 0.00 | 0.00 | 0.00 | 97 | 1012.2 |
| 20260510090527 | 61 | 146 | 0.0 | 2.0 | 0.00 | 0.00 | 0.00 | 97 | 1012.2 |
| 20260510090247 | 61 | 116 | 0.0 | 2.0 | 0.00 | 0.00 | 0.00 | 96 | 1012.2 |
| 20260510085510 | 61 | 124 | 0.0 | 2.0 | 0.00 | 0.00 | 0.00 | 96 | 1012.2 |
| 20260510084959 | 61 | 102 | 0.0 | 2.0 | 0.00 | 0.00 | 0.00 | 96 | 1012.2 |
| 20260510084454 | 61 | 117 | 0.0 | 0.0 | 0.00 | 0.00 | 0.00 | 96 | 1012.2 |
| 20260510083954 | 61 | 125 | 0.0 | 0.0 | 0.00 | 0.00 | 0.00 | 96 | 1011.8 |
| 20260510083707 | 61 | 117 | 0.0 | 2.0 | 0.00 | 0.00 | 0.00 | 96 | 1011.8 |
| 20260510082938 | 61 | 121 | 0.0 | 2.0 | 0.00 | 0.00 | 0.00 | 95 | 1011.8 |
| 20260510082435 | 61 | 116 | 0.0 | 0.0 | 0.00 | 0.00 | 0.00 | 95 | 1011.8 |
| 20260510081931 | 61 | 111 | 0.0 | 0.0 | 0.00 | 0.00 | 0.00 | 95 | 1011.5 |
| 20260510081427 | 61 | 120 | 0.0 | 0.0 | 0.00 | 0.00 | 0.00 | 95 | 1011.5 |
| 20260510081145 | 62 | 115 | 0.0 | 0.0 | 0.00 | 0.00 | 0.00 | 95 | 1011.5 |
| 20260510080418 | 62 | 115 | 0.0 | 0.0 | 0.00 | 0.00 | 0.00 | 95 | 1011.5 |
| 20260510075912 | 62 | 111 | 0.0 | 0.0 | 0.00 | 0.00 | 0.00 | 95 | 1011.5 |
| 20260510075403 | 62 | 115 | 0.0 | 0.0 | 0.00 | 0.00 | 0.00 | 95 | 1011.1 |
| 20260510074855 | 61 | 129 | 0.0 | 0.0 | 0.00 | 0.00 | 0.00 | 95 | 1011.5 |
| 20260510074338 | 61 | 109 | 0.0 | 2.0 | 0.00 | 0.00 | 0.00 | 96 | 1011.1 |
| 20260510073833 | 61 | 147 | 0.0 | 2.0 | 0.00 | 0.00 | 0.00 | 96 | 1011.1 |
| 20260510073315 | 61 | 120 | 0.0 | 0.0 | 0.00 | 0.00 | 0.00 | 97 | 1011.1 |
| 20260510072819 | 61 | 68 | 0.0 | 0.0 | 0.00 | 0.00 | 0.00 | 96 | 1010.8 |
| 20260510072313 | 61 | 88 | 0.0 | 0.0 | 0.00 | 0.00 | 0.00 | 97 | 1010.8 |
| 20260510071803 | 61 | 109 | 0.0 | 2.0 | 0.00 | 0.00 | 0.00 | 97 | 1011.1 |
| 20260510071256 | 61 | 99 | 0.0 | 2.0 | 0.00 | 0.00 | 0.00 | 97 | 1010.8 |
| 20260510070737 | 61 | 100 | 0.0 | 2.0 | 0.00 | 0.00 | 0.00 | 97 | 1010.4 |
| 20260510070235 | 62 | 113 | 0.0 | 2.0 | 0.00 | 0.00 | 0.00 | 96 | 1010.4 |
| 20260510070211 | 61 | 94 | 0.0 | 2.0 | 0.00 | 0.00 | 0.00 | 96 | 1010.4 |
| 20260510065700 | 62 | 55 | 0.0 | 0.0 | 0.00 | 0.00 | 0.00 | 96 | 1010.4 |
| 20260510064143 | 62 | 78 | 0.0 | 0.0 | 0.00 | 0.00 | 0.00 | 95 | 1011.1 |
| 20260510063639 | 62 | 108 | 0.0 | 0.0 | 0.00 | 0.00 | 0.00 | 95 | 1011.1 |
| 20260510063126 | 62 | 97 | 0.0 | 0.0 | 0.00 | 0.00 | 0.00 | 94 | 1010.8 |
| 20260510062628 | 62 | 96 | 0.0 | 0.0 | 0.00 | 0.00 | 0.00 | 94 | 1010.8 |
| 20260510062124 | 62 | 116 | 0.0 | 0.0 | 0.00 | 0.00 | 0.00 | 94 | 1010.8 |
| 20260510061613 | 62 | 77 | 0.0 | 0.0 | 0.00 | 0.00 | 0.00 | 93 | 1010.4 |
| 20260510061054 | 62 | 109 | 0.0 | 0.0 | 0.00 | 0.00 | 0.00 | 93 | 1010.8 |
| 20260510060544 | 62 | 115 | 0.0 | 0.0 | 0.00 | 0.00 | 0.00 | 93 | 1010.8 |
| 20260510060034 | 63 | 112 | 0.0 | 0.0 | 0.00 | 0.00 | 0.00 | 92 | 1010.8 |
| 20260510055523 | 63 | 109 | 0.0 | 0.0 | 0.00 | 0.00 | 0.00 | 91 | 1010.8 |
| 20260510055016 | 63 | 112 | 0.0 | 0.0 | 0.00 | 0.00 | 0.00 | 91 | 1010.8 |
| 20260510054514 | 63 | 134 | 0.0 | 2.0 | 0.00 | 0.00 | 0.00 | 90 | 1010.8 |
| 20260510054009 | 64 | 351 | 0.0 | 2.0 | 0.00 | 0.00 | 0.00 | 90 | 1011.1 |
| 20260510053715 | 64 | 106 | 0.0 | 0.0 | 0.00 | 0.00 | 0.00 | 89 | 1011.5 |
| 20260510052956 | 64 | 121 | 0.0 | 2.0 | 0.00 | 0.00 | 0.00 | 88 | 1010.8 |
| 20260510052450 | 64 | 166 | 0.0 | 2.0 | 0.00 | 0.00 | 0.00 | 86 | 1010.8 |
| 20260510052155 | 64 | 133 | 0.0 | 0.0 | 0.00 | 0.00 | 0.00 | 88 | 1010.4 |
| 20260510051417 | 64 | 109 | 0.0 | 0.0 | 0.00 | 0.00 | 0.00 | 86 | 1010.8 |
| 20260510050913 | 64 | 117 | 0.0 | 0.0 | 0.00 | 0.03 | 0.00 | 86 | 1010.8 |
| 20260510050413 | 64 | 127 | 0.0 | 2.0 | 0.00 | 0.05 | 0.00 | 86 | 1010.8 |
| 20260510045910 | 65 | 116 | 0.0 | 2.0 | 0.00 | 0.06 | 0.06 | 86 | 1010.8 |
| 20260510045407 | 65 | 164 | 0.0 | 2.0 | 0.00 | 0.09 | 0.06 | 84 | 1010.4 |
| 20260510044855 | 65 | 98 | 0.0 | 2.0 | 0.00 | 0.11 | 0.06 | 85 | 1010.4 |
| 20260510044339 | 65 | 155 | 0.0 | 2.0 | 0.00 | 0.13 | 0.06 | 84 | 1010.4 |
| 20260510043823 | 65 | 110 | 0.0 | 2.0 | 0.00 | 0.17 | 0.06 | 84 | 1010.4 |
| 20260510043313 | 65 | 204 | 0.0 | 2.0 | 0.00 | 0.19 | 0.06 | 83 | 1010.4 |
| 20260510043053 | 65 | 111 | 0.0 | 2.0 | 0.00 | 0.22 | 0.06 | 83 | 1010.0 |
| 20260510042313 | 65 | 130 | 0.0 | 2.0 | 0.00 | 0.24 | 0.06 | 82 | 1010.0 |
| 20260510041816 | 64 | 73 | 0.0 | 2.0 | 0.00 | 0.26 | 0.06 | 81 | 1010.0 |
| 20260510041302 | 64 | 265 | 0.0 | 5.0 | 0.00 | 0.28 | 0.06 | 82 | 1009.7 |
| 20260510040805 | 63 | 157 | 0.0 | 5.0 | 0.00 | 0.31 | 0.06 | 84 | 1010.0 |
| 20260510040240 | 62 | 128 | 2.0 | 5.0 | 0.00 | 0.33 | 0.06 | 93 | 1009.7 |
| 20260510035730 | 62 | 87 | 0.0 | 0.0 | 0.00 | 0.36 | 0.06 | 92 | 1009.0 |
| 20260510035439 | 61 | 92 | 0.0 | 0.0 | 0.00 | 0.39 | 0.06 | 93 | 1008.7 |
| 20260510034713 | 62 | 102 | 0.0 | 0.0 | 0.00 | 0.42 | 0.06 | 93 | 1008.7 |
| 20260510034213 | 62 | 100 | 0.0 | 0.0 | 0.00 | 0.45 | 0.06 | 93 | 1008.7 |
| 20260510033656 | 61 | 97 | 0.0 | 0.0 | 0.00 | 0.52 | 0.06 | 93 | 1008.7 |
| 20260510033137 | 61 | 96 | 0.0 | 0.0 | 0.00 | 0.57 | 0.06 | 94 | 1008.7 |
| 20260510032626 | 61 | 104 | 0.0 | 0.0 | 0.00 | 0.69 | 0.06 | 94 | 1008.7 |
| 20260510032112 | 61 | 104 | 0.0 | 0.0 | 0.00 | 0.76 | 0.06 | 94 | 1008.7 |
| 20260510032057 | 61 | 104 | 0.0 | 0.0 | 0.00 | 0.77 | 0.06 | 95 | 1008.3 |
| 20260510031110 | 61 | 104 | 0.0 | 0.0 | 0.00 | 0.78 | 0.06 | 95 | 1008.3 |
| 20260510030610 | 61 | 104 | 0.0 | 0.0 | 0.00 | 0.78 | 0.06 | 95 | 1008.3 |
| 20260510030327 | 61 | 103 | 0.0 | 0.0 | 0.00 | 0.80 | 0.06 | 95 | 1008.3 |
| 20260510025822 | 60 | 103 | 0.0 | 0.0 | 0.00 | 0.81 | 0.06 | 95 | 1008.3 |
| 20260510025309 | 61 | 103 | 0.0 | 0.0 | 0.00 | 0.81 | 0.06 | 94 | 1008.3 |
| 20260510024541 | 61 | 103 | 0.0 | 0.0 | 0.00 | 0.82 | 0.06 | 94 | 1008.3 |
| 20260510024035 | 61 | 103 | 0.0 | 0.0 | 0.00 | 0.82 | 0.06 | 93 | 1008.3 |
| 20260510023515 | 61 | 104 | 0.0 | 0.0 | 0.00 | 0.82 | 0.06 | 93 | 1008.0 |
| 20260510023019 | 62 | 104 | 0.0 | 0.0 | 0.00 | 0.82 | 0.06 | 92 | 1008.3 |
| 20260510022502 | 62 | 103 | 0.0 | 0.0 | 0.00 | 0.82 | 0.06 | 91 | 1008.0 |
| 20260510022212 | 62 | 103 | 0.0 | 0.0 | 0.00 | 0.82 | 0.06 | 90 | 1008.0 |
| 20260510021452 | 63 | 105 | 0.0 | 0.0 | 0.00 | 0.82 | 0.06 | 90 | 1008.0 |
| 20260510020935 | 63 | 105 | 0.0 | 0.0 | 0.00 | 0.82 | 0.06 | 89 | 1007.7 |
| 20260510020421 | 63 | 105 | 0.0 | 0.0 | 0.00 | 0.82 | 0.06 | 88 | 1007.7 |
| 20260510020136 | 64 | 105 | 0.0 | 0.0 | 0.00 | 0.82 | 0.06 | 87 | 1007.7 |
| 20260510015411 | 64 | 107 | 0.0 | 0.0 | 0.00 | 0.82 | 0.06 | 86 | 1007.7 |
| 20260510014902 | 64 | 104 | 0.0 | 0.0 | 0.00 | 0.82 | 0.06 | 86 | 1007.7 |
| 20260510014622 | 65 | 97 | 0.0 | 0.0 | 0.00 | 0.82 | 0.06 | 85 | 1007.7 |
| 20260510013838 | 65 | 96 | 0.0 | 0.0 | 0.00 | 0.82 | 0.06 | 83 | 1007.3 |
| 20260510013326 | 65 | 95 | 0.0 | 0.0 | 0.00 | 0.83 | 0.06 | 82 | 1007.7 |
| 20260510012817 | 66 | 95 | 0.0 | 0.0 | 0.00 | 0.83 | 0.06 | 80 | 1007.3 |
| 20260510012309 | 66 | 94 | 0.0 | 0.0 | 0.00 | 0.84 | 0.06 | 79 | 1007.3 |
| 20260510012021 | 67 | 89 | 0.0 | 0.0 | 0.00 | 0.85 | 0.06 | 78 | 1007.3 |
| 20260510011254 | 67 | 88 | 0.0 | 0.0 | 0.00 | 0.85 | 0.06 | 76 | 1007.3 |
| 20260510010742 | 68 | 88 | 0.0 | 0.0 | 0.00 | 0.89 | 0.06 | 74 | 1007.3 |
| 20260510010236 | 69 | 88 | 0.0 | 0.0 | 0.00 | 0.94 | 0.06 | 72 | 1007.0 |
| 20260510005723 | 69 | 88 | 0.0 | 0.0 | 0.00 | 0.96 | 0.06 | 71 | 1007.0 |
| 20260510005214 | 70 | 88 | 0.0 | 0.0 | 0.00 | 0.97 | 0.06 | 70 | 1007.3 |
| 20260510004706 | 71 | 88 | 0.0 | 0.0 | 0.00 | 0.97 | 0.06 | 69 | 1007.0 |
| 20260510004211 | 71 | 88 | 0.0 | 0.0 | 0.00 | 0.97 | 0.06 | 66 | 1007.0 |
| 20260510003854 | 72 | 87 | 0.0 | 0.0 | 0.00 | 0.97 | 0.06 | 65 | 1007.0 |
| 20260510003123 | 73 | 87 | 0.0 | 0.0 | 0.00 | 0.97 | 0.06 | 62 | 1007.0 |
| 20260510002614 | 74 | 87 | 0.0 | 0.0 | 0.00 | 0.97 | 0.06 | 60 | 1006.6 |
| 20260510002108 | 74 | 87 | 0.0 | 0.0 | 0.00 | 0.97 | 0.06 | 60 | 1006.6 |
| 20260510001610 | 75 | 88 | 0.0 | 0.0 | 0.00 | 0.97 | 0.06 | 59 | 1006.6 |
| 20260510001104 | 75 | 88 | 0.0 | 0.0 | 0.00 | 0.97 | 0.06 | 57 | 1006.6 |
| 20260510000555 | 76 | 87 | 0.0 | 0.0 | 0.00 | 0.97 | 0.06 | 55 | 1006.6 |
| 20260510000033 | 76 | 91 | 0.0 | 0.0 | 0.00 | 0.97 | 0.06 | 55 | 1007.0 |
| 20260509235519 | 77 | 100 | 0.0 | 0.0 | 0.00 | 0.97 | 0.06 | 55 | 1006.6 |
| 20260509235013 | 77 | 118 | 0.0 | 0.0 | 0.00 | 0.97 | 0.06 | 53 | 1006.6 |
| 20260509234503 | 78 | 59 | 0.0 | 0.0 | 0.00 | 0.97 | 0.06 | 52 | 1006.6 |
| 20260509233958 | 78 | 84 | 0.0 | 2.0 | 0.00 | 0.97 | 0.06 | 49 | 1006.6 |
| 20260509233455 | 78 | 124 | 0.0 | 2.0 | 0.00 | 0.97 | 0.06 | 49 | 1006.6 |
| 20260509232947 | 78 | 112 | 0.0 | 2.0 | 0.00 | 0.97 | 0.06 | 53 | 1006.6 |
| 20260509232443 | 79 | 42 | 0.0 | 2.0 | 0.00 | 0.97 | 0.06 | 48 | 1006.6 |
| 20260509232158 | 79 | 116 | 0.0 | 2.0 | 0.00 | 0.97 | 0.06 | 51 | 1006.6 |
| 20260509231430 | 79 | 128 | 0.0 | 2.0 | 0.00 | 0.97 | 0.06 | 48 | 1006.6 |
| 20260509230917 | 79 | 100 | 0.0 | 2.0 | 0.00 | 0.97 | 0.06 | 50 | 1006.6 |
| 20260509230431 | 79 | 132 | 0.0 | 2.0 | 0.00 | 0.97 | 0.06 | 51 | 1006.6 |
| 20260509225855 | 80 | 113 | 0.0 | 2.0 | 0.00 | 0.97 | 0.06 | 50 | 1006.3 |
| 20260509225344 | 80 | 130 | 0.0 | 2.0 | 0.00 | 0.97 | 0.06 | 45 | 1006.3 |
| 20260509224837 | 80 | 125 | 0.0 | 2.0 | 0.00 | 0.97 | 0.06 | 46 | 1006.3 |
| 20260509224326 | 80 | 135 | 0.0 | 2.0 | 0.00 | 0.97 | 0.06 | 49 | 1006.6 |
| 20260509223821 | 80 | 139 | 0.0 | 2.0 | 0.00 | 0.97 | 0.06 | 48 | 1006.6 |
| 20260509223524 | 80 | 138 | 0.0 | 2.0 | 0.00 | 0.97 | 0.06 | 49 | 1006.6 |
| 20260509222800 | 80 | 137 | 1.0 | 2.0 | 0.00 | 0.97 | 0.06 | 45 | 1006.6 |
| 20260509222255 | 80 | 127 | 1.0 | 2.0 | 0.00 | 0.97 | 0.06 | 47 | 1006.6 |
| 20260509221741 | 80 | 102 | 0.0 | 2.0 | 0.00 | 0.97 | 0.06 | 46 | 1006.6 |
| 20260509221506 | 80 | 132 | 0.0 | 2.0 | 0.00 | 0.97 | 0.06 | 46 | 1006.6 |
| 20260509220725 | 80 | 131 | 0.0 | 5.0 | 0.00 | 0.97 | 0.06 | 45 | 1006.6 |
| 20260509220214 | 80 | 120 | 1.0 | 5.0 | 0.00 | 0.97 | 0.06 | 46 | 1006.6 |
| 20260509215713 | 80 | 208 | 1.0 | 5.0 | 0.00 | 0.97 | 0.06 | 45 | 1006.6 |
| 20260509215410 | 81 | 120 | 0.0 | 5.0 | 0.00 | 0.97 | 0.06 | 49 | 1006.6 |
| 20260509214637 | 81 | 136 | 0.0 | 5.0 | 0.00 | 0.97 | 0.06 | 46 | 1006.3 |
| 20260509214133 | 81 | 117 | 0.0 | 2.0 | 0.00 | 0.97 | 0.06 | 45 | 1006.6 |
| 20260509213620 | 81 | 127 | 0.0 | 5.0 | 0.00 | 0.97 | 0.06 | 47 | 1006.3 |
| 20260509213112 | 81 | 138 | 1.0 | 5.0 | 0.00 | 0.97 | 0.06 | 44 | 1006.3 |
| 20260509212546 | 81 | 120 | 0.0 | 10.0 | 0.00 | 0.97 | 0.06 | 45 | 1006.6 |
| 20260509212042 | 82 | 51 | 0.0 | 8.0 | 0.00 | 0.97 | 0.06 | 43 | 1006.6 |
| 20260509211526 | 82 | 112 | 0.0 | 8.0 | 0.00 | 0.97 | 0.06 | 44 | 1006.6 |
| 20260509211016 | 82 | 121 | 4.0 | 8.0 | 0.00 | 0.97 | 0.06 | 45 | 1006.6 |
| 20260509210511 | 83 | 156 | 0.0 | 8.0 | 0.00 | 0.97 | 0.06 | 45 | 1006.6 |
| 20260509210003 | 84 | 124 | 2.0 | 8.0 | 0.00 | 0.97 | 0.06 | 41 | 1006.3 |
| 20260509205443 | 84 | 4 | 4.0 | 5.0 | 0.00 | 0.97 | 0.06 | 43 | 1006.6 |
| 20260509204940 | 84 | 130 | 0.0 | 5.0 | 0.00 | 0.97 | 0.06 | 45 | 1006.6 |
| 20260509204437 | 84 | 90 | 0.0 | 5.0 | 0.00 | 0.97 | 0.06 | 49 | 1006.6 |